CT2IRK-11 Weather Reports


time (UTC)temp
C
wind
direction
speed
KPH
gust
KPH
rain 1hr
cm
rain 24hr
cm
rain mn
cm
humidity
%
barometer
mb
20181215023942 8 45 0.0 0.0 0.00 0.00 0.00 91 1021.5
20181215023442 8 333 0.0 0.0 0.00 0.00 0.00 91 1021.5
20181215022942 8 45 0.0 0.0 0.00 0.00 0.00 91 1021.5
20181215022442 8 303 0.0 0.0 0.00 0.00 0.00 91 1021.4
20181215021942 8 244 0.0 0.0 0.00 0.00 0.00 91 1021.4
20181215021442 8 257 0.0 0.0 0.00 0.00 0.00 91 1021.2
20181215020941 8 253 0.0 0.0 0.00 0.00 0.00 91 1021.2
20181215020443 8 195 0.0 0.0 0.00 0.00 0.00 91 1021.3
20181215015942 8 215 0.0 0.0 0.00 0.00 0.00 91 1021.5
20181215015442 8 256 0.0 0.0 0.00 0.00 0.00 91 1021.5
20181215014942 8 225 0.0 0.0 0.00 0.00 0.00 91 1021.6
20181215014441 8 208 0.0 0.0 0.00 0.00 0.00 91 1021.6
20181215013941 8 226 0.0 0.0 0.00 0.00 0.00 91 1021.7
20181215013443 8 270 0.0 0.0 0.00 0.00 0.00 91 1021.7
20181215012942 8 341 0.0 0.0 0.00 0.00 0.00 91 1021.7
20181215012442 8 0 0.0 0.0 0.00 0.00 0.00 91 1021.7
20181215011943 8 24 0.0 0.0 0.00 0.00 0.00 91 1021.7
20181215011442 8 45 0.0 0.0 0.00 0.00 0.00 91 1021.9
20181215010942 8 22 0.0 0.0 0.00 0.00 0.00 90 1021.9
20181215010442 8 22 0.0 0.0 0.00 0.00 0.00 90 1021.9
20181215005941 8 45 0.0 0.0 0.00 0.00 0.00 90 1022.1
20181215005441 8 50 0.0 0.0 0.00 0.00 0.00 90 1022.1
20181215004942 8 35 0.0 0.0 0.00 0.00 0.00 90 1022.1
20181215004441 8 45 0.0 0.0 0.00 0.00 0.00 90 1022.1
20181215003942 8 22 0.0 0.0 0.00 0.00 0.00 90 1022.2
20181215003442 8 37 0.0 0.0 0.00 0.00 0.00 89 1022.2
20181215002942 8 45 0.0 0.0 0.00 0.00 0.00 89 1022.2
20181215002442 8 22 0.0 0.0 0.00 0.00 0.00 89 1021.9
20181215001942 8 317 0.0 0.0 0.00 0.00 0.00 89 1021.9
20181215001441 8 334 0.0 0.0 0.00 0.00 0.00 89 1021.8
20181215000941 8 294 0.0 0.0 0.00 0.00 0.00 89 1021.8
20181215000442 8 312 0.0 0.0 0.00 0.00 0.00 89 1021.8
20181214235941 7 135 0.0 24.1 0.00 0.00 0.00 89 1022.0
20181214235441 7 115 0.0 24.1 0.00 0.00 0.00 89 1022.0
20181214234941 7 202 0.0 24.1 0.00 0.00 0.00 89 1022.0
20181214234442 7 225 0.0 24.1 0.00 0.00 0.00 89 1022.0
20181214233941 8 188 0.0 24.1 0.00 0.00 0.00 89 1022.1
20181214233442 8 146 0.0 24.1 0.00 0.00 0.00 89 1022.2
20181214232942 8 270 0.0 24.1 0.00 0.00 0.00 89 1022.2
20181214232441 8 147 0.0 24.1 0.00 0.00 0.00 89 1022.2
20181214231941 8 155 0.0 24.1 0.00 0.00 0.00 89 1022.2
20181214231441 8 190 0.0 24.1 0.00 0.00 0.00 89 1022.2
20181214230940 8 173 0.0 24.1 0.00 0.00 0.00 88 1022.2
20181214230442 8 315 0.0 24.1 0.00 0.00 0.00 88 1022.2
20181214225942 8 202 0.0 24.1 0.00 0.00 0.00 88 1022.2
20181214225441 8 189 0.0 24.1 0.00 0.00 0.00 88 1022.2
20181214224942 8 180 0.0 24.1 0.00 0.00 0.00 88 1022.4
20181214224442 8 183 0.0 24.1 0.00 0.00 0.00 87 1022.4
20181214223940 8 194 0.0 24.1 0.00 0.00 0.00 87 1022.3
20181214223442 8 169 0.0 24.1 0.00 0.00 0.00 87 1022.2
20181214222941 8 147 0.0 24.1 0.00 0.00 0.00 87 1022.2
20181214222440 8 190 0.0 24.1 0.00 0.00 0.00 87 1022.4
20181214221941 9 108 0.0 24.1 0.00 0.00 0.00 87 1022.4
20181214221441 9 0 0.0 24.1 0.00 0.00 0.00 87 1022.2
20181214220942 9 3 0.0 24.1 0.00 0.00 0.00 87 1022.2
20181214220441 9 292 0.0 24.1 0.00 0.00 0.00 87 1022.2
20181214215942 9 341 0.0 24.1 0.00 0.00 0.00 87 1022.2
20181214215441 9 45 0.0 24.1 0.00 0.00 0.00 86 1022.2
20181214214941 9 68 0.0 24.1 0.00 0.00 0.00 86 1022.2
20181214214441 9 335 0.0 24.1 0.00 0.00 0.00 86 1022.2
20181214213942 10 58 0.0 24.1 0.00 0.00 0.00 85 1021.9
20181214213441 10 70 0.0 24.1 0.00 0.00 0.00 85 1021.9
20181214212942 10 58 0.0 24.1 0.00 0.00 0.00 85 1021.9
20181214212442 10 104 0.0 24.1 0.00 0.00 0.00 85 1022.1
20181214211941 10 90 0.0 24.1 0.00 0.00 0.00 85 1022.1
20181214211440 10 145 0.0 24.1 0.00 0.00 0.00 85 1021.9
20181214210942 10 155 0.0 24.1 0.00 0.00 0.00 85 1021.9
20181214210440 10 135 0.0 24.1 0.00 0.00 0.00 85 1021.9
20181214205940 10 112 0.0 24.1 0.00 0.00 0.00 84 1022.0
20181214205441 10 192 0.0 24.1 0.00 0.00 0.00 83 1022.0
20181214204941 10 214 3.2 24.1 0.00 0.00 0.00 83 1021.8
20181214204441 11 90 1.6 24.1 0.00 0.00 0.00 83 1021.8
20181214203941 11 90 0.0 24.1 0.00 0.00 0.00 83 1021.7
20181214203442 11 200 0.0 24.1 0.00 0.00 0.00 83 1021.7
20181214202941 11 104 0.0 24.1 0.00 0.00 0.00 83 1021.7
20181214202441 11 120 1.6 24.1 0.00 0.00 0.00 83 1021.8
20181214201941 11 179 0.0 24.1 0.00 0.00 0.00 84 1021.8
20181214201440 11 165 3.2 24.1 0.00 0.00 0.00 84 1021.8
20181214200940 11 127 0.0 24.1 0.00 0.00 0.00 83 1021.8
20181214200440 11 160 1.6 24.1 0.00 0.00 0.00 83 1021.8
20181214195941 11 141 3.2 24.1 0.00 0.00 0.00 83 1021.9
20181214195441 10 147 3.2 24.1 0.00 0.00 0.00 83 1021.9
20181214194941 10 133 3.2 24.1 0.00 0.00 0.00 83 1021.7
20181214194440 10 121 3.2 24.1 0.00 0.00 0.00 83 1021.7
20181214193941 10 139 3.2 24.1 0.00 0.00 0.00 83 1021.8
20181214193441 10 116 0.0 24.1 0.00 0.00 0.00 83 1021.8
20181214192941 11 149 0.0 24.1 0.00 0.00 0.00 83 1021.8
20181214192441 11 146 3.2 24.1 0.00 0.00 0.00 83 1021.9
20181214191941 11 165 3.2 24.1 0.00 0.00 0.00 82 1021.9
20181214191440 11 155 3.2 24.1 0.00 0.00 0.00 82 1021.9
20181214190941 11 147 3.2 24.1 0.00 0.00 0.00 82 1021.9
20181214190441 11 158 3.2 24.1 0.00 0.00 0.00 81 1021.9
20181214185939 11 143 4.8 24.1 0.00 0.00 0.00 81 1021.7
20181214185441 11 132 1.6 24.1 0.00 0.00 0.00 81 1021.7
20181214184941 11 135 3.2 24.1 0.00 0.00 0.00 81 1021.7
20181214184439 11 150 4.8 24.1 0.00 0.00 0.00 81 1021.7
20181214183939 11 112 3.2 24.1 0.00 0.00 0.00 80 1021.5
20181214183441 11 125 3.2 24.1 0.00 0.00 0.00 80 1021.5
20181214182941 12 128 1.6 24.1 0.00 0.00 0.00 80 1021.5
20181214182440 12 135 3.2 24.1 0.00 0.00 0.00 79 1021.5
20181214181940 12 153 3.2 24.1 0.00 0.00 0.00 79 1021.5
20181214181440 12 112 1.6 24.1 0.00 0.00 0.00 78 1021.4
20181214180939 12 162 3.2 24.1 0.00 0.00 0.00 78 1021.4
20181214180439 12 137 3.2 24.1 0.00 0.00 0.00 77 1021.4
20181214175941 12 100 0.0 24.1 0.00 0.00 0.00 77 1021.5
20181214175441 13 146 3.2 24.1 0.00 0.00 0.00 76 1021.5
20181214174940 13 121 0.0 24.1 0.00 0.00 0.00 75 1021.4
20181214174440 13 112 0.0 24.1 0.00 0.00 0.00 74 1021.4
20181214173940 13 147 0.0 24.1 0.00 0.00 0.00 73 1021.2
20181214173440 13 172 0.0 24.1 0.00 0.00 0.00 73 1021.2
20181214172940 13 183 0.0 24.1 0.00 0.00 0.00 73 1021.2
20181214172441 14 232 0.0 24.1 0.00 0.00 0.00 71 1021.0
20181214171940 14 269 3.2 24.1 0.00 0.00 0.00 71 1021.0
20181214171439 14 262 1.6 24.1 0.00 0.00 0.00 71 1020.9
20181214170941 14 248 3.2 24.1 0.00 0.00 0.00 70 1020.9
20181214170439 15 248 4.8 24.1 0.00 0.00 0.00 69 1020.9
20181214165939 15 266 4.8 24.1 0.00 0.00 0.00 69 1020.9
20181214165440 15 277 4.8 24.1 0.00 0.00 0.00 68 1020.9
20181214164939 15 258 6.4 24.1 0.00 0.00 0.00 68 1021.1
20181214164439 15 257 6.4 24.1 0.00 0.00 0.00 68 1021.1
20181214163939 15 264 4.8 24.1 0.00 0.00 0.00 67 1020.9
20181214163440 15 248 4.8 24.1 0.00 0.00 0.00 66 1020.9
20181214162939 16 283 3.2 24.1 0.00 0.00 0.00 65 1020.9
20181214162440 16 314 4.8 24.1 0.00 0.00 0.00 64 1020.9
20181214161940 16 294 3.2 24.1 0.00 0.00 0.00 63 1020.9
20181214161440 16 311 1.6 24.1 0.00 0.00 0.00 62 1020.8
20181214160940 16 349 0.0 24.1 0.00 0.00 0.00 64 1020.8
20181214160440 16 283 4.8 24.1 0.00 0.00 0.00 63 1020.8
20181214155939 16 264 3.2 24.1 0.00 0.00 0.00 64 1020.8
20181214155439 16 286 6.4 24.1 0.00 0.00 0.00 63 1020.8
20181214154939 16 270 0.0 24.1 0.00 0.00 0.00 63 1020.8
20181214154440 16 248 0.0 24.1 0.00 0.00 0.00 62 1020.8
20181214153939 16 264 1.6 24.1 0.00 0.00 0.00 62 1020.8
20181214153439 16 270 4.8 24.1 0.00 0.00 0.00 61 1020.7
20181214152939 16 270 6.4 24.1 0.00 0.00 0.00 62 1020.7
20181214152439 16 270 8.0 24.1 0.00 0.00 0.00 61 1020.6
20181214151939 16 270 6.4 24.1 0.00 0.00 0.00 61 1020.6
20181214151440 16 270 8.0 24.1 0.00 0.00 0.00 60 1020.2
20181214150940 17 290 11.3 24.1 0.00 0.00 0.00 60 1020.2
20181214150439 16 270 9.7 24.1 0.00 0.00 0.00 60 1020.4
20181214145938 16 303 9.7 24.1 0.00 0.00 0.00 61 1020.6
20181214145440 16 271 8.0 24.1 0.00 0.00 0.00 62 1020.6
20181214144940 16 288 8.0 24.1 0.00 0.00 0.00 62 1020.7
20181214144439 16 248 6.4 24.1 0.00 0.00 0.00 62 1020.7
20181214143939 16 274 12.9 24.1 0.00 0.00 0.00 62 1020.3
20181214143440 16 308 14.5 24.1 0.00 0.00 0.00 61 1020.3
20181214142940 16 295 6.4 24.1 0.00 0.00 0.00 63 1020.3
20181214142439 16 357 12.9 24.1 0.00 0.00 0.00 62 1020.3
20181214141939 16 292 12.9 24.1 0.00 0.00 0.00 62 1020.3
20181214141439 16 292 12.9 24.1 0.00 0.00 0.00 61 1020.4
20181214140938 16 292 14.5 24.1 0.00 0.00 0.00 61 1020.4
20181214140440 16 17 11.3 24.1 0.00 0.00 0.00 63 1020.4
20181214135938 16 302 11.3 24.1 0.00 0.00 0.00 64 1020.3
20181214135439 15 281 8.0 24.1 0.00 0.00 0.00 65 1020.3
20181214134939 15 344 11.3 24.1 0.00 0.00 0.00 65 1020.4
20181214134438 16 301 16.1 24.1 0.00 0.00 0.00 63 1020.4
20181214133940 16 302 17.7 24.1 0.00 0.00 0.00 62 1020.5
20181214133439 16 292 17.7 24.1 0.00 0.00 0.00 62 1020.5
20181214132938 16 291 16.1 24.1 0.00 0.00 0.00 63 1020.5
20181214132439 16 310 12.9 20.9 0.00 0.00 0.00 63 1020.7
20181214131939 16 270 12.9 20.9 0.00 0.00 0.00 62 1020.7
20181214131439 16 284 16.1 20.9 0.00 0.00 0.00 63 1020.8
20181214130939 16 281 9.7 20.9 0.00 0.00 0.00 62 1020.8
20181214130439 17 286 14.5 20.9 0.00 0.00 0.00 61 1020.8
20181214125939 17 315 14.5 17.7 0.00 0.00 0.00 63 1021.0
20181214125439 17 300 9.7 16.1 0.00 0.00 0.00 62 1021.0
20181214124940 17 285 14.5 16.1 0.00 0.00 0.00 61 1021.1
20181214124439 16 256 8.0 11.3 0.00 0.10 0.00 64 1021.1
20181214123938 16 281 6.4 9.7 0.00 0.10 0.00 66 1021.3
20181214123438 16 259 3.2 9.7 0.00 0.10 0.00 68 1021.4
20181214122939 15 275 3.2 9.7 0.00 0.10 0.00 70 1021.4
20181214122439 15 348 3.2 9.7 0.00 0.10 0.00 70 1021.5
20181214121938 16 337 4.8 9.7 0.00 0.10 0.00 68 1021.5
20181214121439 16 278 1.6 9.7 0.00 0.10 0.00 66 1021.6
20181214120939 16 69 0.0 9.7 0.00 0.10 0.00 69 1021.6
20181214120439 15 75 3.2 9.7 0.00 0.10 0.00 69 1021.6
20181214115939 15 215 3.2 9.7 0.00 0.10 0.00 70 1021.8
20181214115438 15 103 3.2 9.7 0.00 0.10 0.00 70 1021.8
20181214114938 15 128 3.2 9.7 0.00 0.10 0.00 70 1021.9
20181214114440 15 156 4.8 9.7 0.00 0.10 0.00 71 1021.9
20181214113939 15 146 1.6 9.7 0.00 0.10 0.00 72 1022.0
20181214113438 14 145 3.2 9.7 0.00 0.10 0.00 72 1022.0
20181214112938 14 159 3.2 9.7 0.00 0.10 0.00 73 1022.0
20181214112438 13 150 4.8 9.7 0.00 0.10 0.00 74 1022.3
20181214111938 13 180 3.2 9.7 0.00 0.10 0.00 75 1022.3
20181214111439 13 184 0.0 9.7 0.00 0.10 0.00 77 1022.3
20181214110938 12 202 3.2 9.7 0.00 0.10 0.00 78 1022.3
20181214110439 12 202 4.8 9.7 0.00 0.10 0.00 78 1022.3
20181214105939 12 186 3.2 9.7 0.00 0.10 0.00 80 1022.3
20181214105439 11 187 4.8 9.7 0.00 0.10 0.00 81 1022.3
20181214104939 11 202 4.8 9.7 0.00 0.10 0.00 81 1022.3
20181214104438 11 209 4.8 9.7 0.00 0.10 0.00 81 1022.3
20181214103937 11 200 4.8 9.7 0.00 0.10 0.00 80 1022.3
20181214103439 11 197 4.8 9.7 0.00 0.10 0.00 80 1022.2
20181214102939 11 170 3.2 9.7 0.00 0.10 0.00 81 1022.2
20181214102438 11 215 4.8 9.7 0.00 0.10 0.00 81 1022.0
20181214101938 11 158 6.4 9.7 0.00 0.13 0.00 82 1022.0
20181214101438 11 187 6.4 9.7 0.00 0.18 0.00 83 1022.2
20181214100937 10 180 6.4 9.7 0.00 0.23 0.00 83 1022.2
20181214100437 10 193 4.8 9.7 0.00 0.23 0.00 83 1022.2
20181214095938 10 212 6.4 9.7 0.00 0.23 0.00 84 1022.1
20181214095437 10 191 4.8 9.7 0.00 0.23 0.00 84 1022.1
20181214094938 10 219 4.8 9.7 0.00 0.23 0.00 84 1022.3
20181214094438 10 180 3.2 9.7 0.00 0.23 0.00 84 1022.3
20181214093938 10 177 3.2 9.7 0.00 0.23 0.00 85 1022.2
20181214093438 10 169 4.8 9.7 0.00 0.23 0.00 86 1022.0
20181214092938 10 194 4.8 9.7 0.00 0.23 0.00 87 1022.0
20181214092438 10 214 0.0 9.7 0.00 0.23 0.00 88 1021.6
20181214091937 9 234 3.2 9.7 0.00 0.23 0.00 88 1021.6
20181214091439 9 237 0.0 9.7 0.00 0.23 0.00 88 1021.4
20181214090939 9 202 0.0 9.7 0.00 0.23 0.00 89 1021.4
20181214090437 9 215 1.6 9.7 0.00 0.23 0.00 89 1021.4
20181214085939 9 236 0.0 9.7 0.00 0.23 0.00 89 1021.1
20181214085438 9 112 0.0 9.7 0.00 0.23 0.00 89 1021.1
20181214084937 9 189 0.0 9.7 0.00 0.23 0.00 89 1021.0
20181214084438 8 189 0.0 9.7 0.00 0.23 0.00 89 1021.0
20181214083938 8 193 0.0 9.7 0.00 0.23 0.00 89 1021.0
20181214083438 8 148 1.6 9.7 0.00 0.23 0.00 89 1021.0
20181214082937 8 160 4.8 9.7 0.00 0.23 0.00 89 1021.0
20181214082438 8 90 3.2 9.7 0.00 0.23 0.00 89 1020.9
20181214081937 8 113 1.6 9.7 0.00 0.23 0.00 89 1020.9
20181214081438 8 135 0.0 9.7 0.00 0.23 0.00 89 1020.9
20181214080938 8 191 0.0 9.7 0.00 0.23 0.00 89 1020.9
20181214080437 8 138 3.2 9.7 0.00 0.23 0.00 89 1020.9
20181214075937 8 92 0.0 9.7 0.00 0.23 0.00 89 1020.6
20181214075439 8 112 0.0 9.7 0.00 0.23 0.00 89 1020.6
20181214074937 7 161 0.0 9.7 0.00 0.23 0.00 89 1020.8
20181214074437 7 112 0.0 9.7 0.00 0.23 0.00 89 1020.8
20181214073937 7 90 0.0 9.7 0.00 0.23 0.00 88 1020.4
20181214073439 7 205 1.6 9.7 0.00 0.23 0.00 88 1020.4
20181214072938 7 225 0.0 9.7 0.00 0.23 0.00 88 1020.4
20181214072438 8 180 0.0 9.7 0.00 0.23 0.00 88 1020.3
20181214071938 7 158 0.0 9.7 0.00 0.23 0.00 88 1020.3
20181214071437 7 112 0.0 9.7 0.00 0.23 0.00 88 1020.0
20181214070937 7 158 0.0 9.7 0.00 0.23 0.00 88 1020.0
20181214070438 7 180 0.0 9.7 0.00 0.23 0.00 88 1020.0
20181214065938 7 248 0.0 9.7 0.00 0.23 0.00 88 1019.6
20181214065438 7 248 0.0 9.7 0.00 0.23 0.00 88 1019.6
20181214064936 7 225 0.0 9.7 0.00 0.23 0.00 88 1019.3
20181214064438 7 225 0.0 9.7 0.00 0.23 0.00 88 1019.3
20181214063937 8 202 0.0 9.7 0.00 0.23 0.00 88 1019.4
20181214063437 8 203 0.0 9.7 0.00 0.23 0.00 88 1019.4
20181214062938 8 181 0.0 9.7 0.00 0.23 0.00 88 1019.4
20181214062437 8 102 0.0 9.7 0.00 0.23 0.00 88 1019.2
20181214061937 8 182 0.0 9.7 0.00 0.23 0.00 88 1019.2
20181214061438 8 209 3.2 9.7 0.00 0.23 0.00 88 1018.9
20181214060937 8 113 3.2 9.7 0.00 0.23 0.00 88 1018.9
20181214060437 8 112 3.2 9.7 0.00 0.23 0.00 88 1018.9
20181214055937 8 126 0.0 9.7 0.00 0.23 0.00 88 1018.8
20181214055437 7 90 0.0 9.7 0.00 0.23 0.00 88 1018.8
20181214054938 7 126 3.2 9.7 0.00 0.23 0.00 88 1018.9
20181214054437 7 51 0.0 9.7 0.00 0.23 0.00 88 1018.9
20181214053938 7 45 0.0 9.7 0.00 0.23 0.00 88 1018.5
20181214053438 7 66 0.0 9.7 0.00 0.23 0.00 88 1018.5
20181214052936 7 33 0.0 9.7 0.00 0.23 0.00 88 1018.5
20181214052438 7 12 0.0 9.7 0.00 0.23 0.00 88 1018.5
20181214051938 7 154 0.0 9.7 0.00 0.23 0.00 88 1018.5
20181214051437 7 90 0.0 9.7 0.00 0.23 0.00 88 1018.5
20181214050937 7 45 0.0 9.7 0.00 0.23 0.00 88 1018.5
20181214050438 7 59 3.2 9.7 0.00 0.23 0.00 88 1018.5
20181214045937 7 57 3.2 9.7 0.00 0.23 0.00 88 1018.3
20181214045437 7 26 3.2 9.7 0.00 0.23 0.00 88 1018.3
20181214044937 7 45 3.2 9.7 0.00 0.23 0.00 88 1018.2
20181214044436 7 56 1.6 9.7 0.00 0.23 0.00 87 1018.2
20181214043936 7 45 3.2 9.7 0.00 0.23 0.00 87 1018.2
20181214043438 7 45 3.2 9.7 0.00 0.23 0.00 87 1018.2
20181214042938 7 57 1.6 9.7 0.00 0.23 0.00 87 1018.2
20181214042437 7 45 3.2 9.7 0.00 0.23 0.00 86 1018.4
20181214041937 7 45 6.4 9.7 0.00 0.25 0.00 86 1018.4
20181214041436 8 22 4.8 9.7 0.00 0.25 0.00 86 1018.3
20181214040936 8 325 3.2 9.7 0.00 0.25 0.00 86 1018.3
20181214040436 8 275 4.8 9.7 0.00 0.25 0.00 86 1018.3
20181214035937 8 270 6.4 9.7 0.00 0.25 0.00 86 1018.4
20181214035437 8 280 4.8 9.7 0.00 0.25 0.00 87 1018.4
20181214034937 8 253 6.4 9.7 0.00 0.25 0.00 87 1018.2
20181214034436 8 270 6.4 9.7 0.00 0.25 0.00 87 1018.2
20181214033937 8 248 4.8 9.7 0.00 0.25 0.00 87 1018.0
20181214033437 8 262 4.8 9.7 0.00 0.25 0.00 87 1018.0
20181214032937 8 192 4.8 8.0 0.00 0.25 0.00 87 1018.0
20181214032437 8 227 4.8 8.0 0.00 0.25 0.00 87 1018.3
20181214031936 8 182 3.2 8.0 0.00 0.25 0.00 87 1018.3
20181214031437 8 208 1.6 8.0 0.00 0.25 0.00 86 1018.4
20181214030936 8 192 0.0 8.0 0.00 0.28 0.00 86 1018.4
20181214030436 8 193 3.2 8.0 0.00 0.30 0.00 86 1018.4
20181214025937 8 184 3.2 8.0 0.00 0.30 0.00 86 1018.0
20181214025437 8 249 1.6 8.0 0.00 0.30 0.00 86 1018.0
20181214024936 8 190 4.8 8.0 0.00 0.30 0.00 86 1018.1
20181214024435 8 180 1.6 8.0 0.00 0.30 0.00 86 1018.1